EN

Hourly Weather Bolshoe Minino

Today, 28 October, Wednesday

Time Temperature Precipitation Wind Pressure Humidity
00:00 +3°C° 0 mm 5 mps 744 mmHg 79%
01:00 +4°C° 0 mm 4 mps 744 mmHg 79%
02:00 +3°C° 0 mm 4 mps 745 mmHg 82%
03:00 +3°C° 0 mm 4 mps 744 mmHg 82%
04:00 +3°C° 0 mm 4 mps 744 mmHg 82%
05:00 +1°C° 0 mm 4 mps 744 mmHg 83%
06:00 +1°C° 0 mm 4 mps 744 mmHg 81%
07:00 +2°C° 0 mm 5 mps 744 mmHg 79%
08:00 +2°C° 0 mm 5 mps 744 mmHg 77%
09:00 +3°C° 0 mm 5 mps 744 mmHg 74%
10:00 +5°C° 0 mm 5 mps 744 mmHg 71%
11:00 +6°C° 0 mm 5 mps 744 mmHg 68%
12:00 +6°C° 0 mm 5 mps 744 mmHg 67%
13:00 +7°C° 0 mm 4 mps 744 mmHg 67%
14:00 +7°C° 0 mm 4 mps 743 mmHg 66%
15:00 +6°C° 0 mm 4 mps 743 mmHg 68%
16:00 +5°C° 0 mm 4 mps 743 mmHg 71%
17:00 +5°C° 0 mm 3 mps 743 mmHg 74%
18:00 +4°C° 0 mm 3 mps 743 mmHg 74%
19:00 +4°C° 0 mm 4 mps 743 mmHg 74%
20:00 +4°C° 0 mm 4 mps 743 mmHg 75%
21:00 +4°C° 0 mm 3 mps 743 mmHg 75%
22:00 +3°C° 0 mm 3 mps 743 mmHg 76%
23:00 +3°C° 0 mm 3 mps 743 mmHg 76%

Tomorrow, 29 October, Thursday

Time Temperature Precipitation Wind Pressure Humidity
00:00 +3°C° 0 mm 3 mps 743 mmHg 76%
01:00 +2°C° 0 mm 3 mps 743 mmHg 75%
02:00 +2°C° 0 mm 3 mps 743 mmHg 75%
03:00 +2°C° 0 mm 3 mps 742 mmHg 75%
04:00 +2°C° 0 mm 3 mps 742 mmHg 76%
05:00 +2°C° 0 mm 3 mps 742 mmHg 76%
06:00 +2°C° 0 mm 3 mps 742 mmHg 76%
07:00 +2°C° 0 mm 3 mps 742 mmHg 75%
08:00 +1°C° 0 mm 4 mps 742 mmHg 74%
09:00 +4°C° 0 mm 4 mps 742 mmHg 70%
10:00 +5°C° 0 mm 4 mps 741 mmHg 65%
11:00 +6°C° 0 mm 4 mps 741 mmHg 61%
12:00 +6°C° 0 mm 4 mps 741 mmHg 60%
13:00 +6°C° 0 mm 4 mps 740 mmHg 59%
14:00 +7°C° 0 mm 4 mps 740 mmHg 58%
15:00 +6°C° 0 mm 4 mps 740 mmHg 61%
16:00 +5°C° 0 mm 4 mps 739 mmHg 65%
17:00 +4°C° 0 mm 3 mps 739 mmHg 68%
18:00 +4°C° 0 mm 3 mps 739 mmHg 71%
19:00 +4°C° 0 mm 3 mps 739 mmHg 73%
20:00 +3°C° 0 mm 3 mps 739 mmHg 76%
21:00 +3°C° 0 mm 3 mps 738 mmHg 77%
22:00 +4°C° 0 mm 2 mps 738 mmHg 78%
23:00 +4°C° 0 mm 2 mps 738 mmHg 79%

Day after tomorrow, 30 October, Friday

Time Temperature Precipitation Wind Pressure Humidity
00:00 +4°C° 0 mm 2 mps 738 mmHg 79%
01:00 +5°C° 0 mm 2 mps 737 mmHg 78%
02:00 +5°C° 0 mm 2 mps 737 mmHg 77%
03:00 +5°C° 0 mm 2 mps 737 mmHg 78%
04:00 +5°C° 0 mm 2 mps 737 mmHg 78%
05:00 +5°C° 0 mm 2 mps 737 mmHg 78%
06:00 +5°C° 0 mm 2 mps 737 mmHg 79%
07:00 +5°C° 0 mm 2 mps 737 mmHg 80%
08:00 +5°C° 0 mm 2 mps 737 mmHg 80%
09:00 +6°C° 0 mm 2 mps 737 mmHg 78%
10:00 +7°C° 0 mm 2 mps 737 mmHg 75%
11:00 +8°C° 0 mm 2 mps 736 mmHg 73%
12:00 +8°C° 0 mm 2 mps 736 mmHg 73%
13:00 +9°C° 0 mm 2 mps 736 mmHg 72%
14:00 +9°C° 0 mm 2 mps 736 mmHg 72%
15:00 +8°C° 0 mm 2 mps 736 mmHg 75%
16:00 +9°C° 0 mm 1 mps 736 mmHg 77%
17:00 +8°C° 0 mm 1 mps 736 mmHg 80%
18:00 +8°C° 0 mm 1 mps 736 mmHg 82%
19:00 +8°C° 0 mm 1 mps 736 mmHg 84%
20:00 +7°C° 0 mm 1 mps 736 mmHg 85%
21:00 +7°C° 0 mm 1 mps 736 mmHg 86%
22:00 +7°C° 0 mm 1 mps 736 mmHg 87%
23:00 +7°C° 0 mm 1 mps 735 mmHg 88%

31 October, Saturday

Time Temperature Precipitation Wind Pressure Humidity
00:00 +7°C° 0 mm 1 mps 735 mmHg 88%
01:00 +6°C° 0 mm 0 mps 735 mmHg 88%
02:00 +6°C° 0 mm 0 mps 735 mmHg 89%
03:00 +7°C° 0 mm 1 mps 735 mmHg 89%
04:00 +7°C° 0 mm 1 mps 736 mmHg 90%
05:00 +7°C° 0 mm 1 mps 736 mmHg 90%
06:00 +7°C° 0.2 mm 1 mps 736 mmHg 91%
07:00 +7°C° 0.2 mm 1 mps 736 mmHg 91%
08:00 +7°C° 0.2 mm 1 mps 736 mmHg 91%
09:00 +6°C° 0.1 mm 2 mps 737 mmHg 90%
10:00 +7°C° 0.1 mm 2 mps 737 mmHg 88%
11:00 +7°C° 0.1 mm 2 mps 737 mmHg 86%
12:00 +8°C° 0 mm 2 mps 737 mmHg 85%
13:00 +8°C° 0 mm 2 mps 738 mmHg 84%
14:00 +8°C° 0 mm 2 mps 738 mmHg 83%
15:00 +8°C° 0 mm 2 mps 738 mmHg 85%
16:00 +7°C° 0 mm 3 mps 739 mmHg 87%
17:00 +7°C° 0 mm 3 mps 739 mmHg 88%
18:00 +7°C° 0 mm 3 mps 739 mmHg 89%
19:00 +7°C° 0 mm 3 mps 740 mmHg 89%
20:00 +7°C° 0 mm 3 mps 740 mmHg 90%
21:00 +7°C° 0 mm 3 mps 741 mmHg 90%
22:00 +6°C° 0 mm 4 mps 741 mmHg 90%
23:00 +6°C° 0 mm 4 mps 741 mmHg 90%

1 November, Sunday

Time Temperature Precipitation Wind Pressure Humidity
00:00 +6°C° 0 mm 4 mps 741 mmHg 89%
01:00 +6°C° 0 mm 4 mps 741 mmHg 89%
02:00 +6°C° 0 mm 4 mps 742 mmHg 89%
03:00 +6°C° 0 mm 4 mps 742 mmHg 89%
04:00 +5°C° 0 mm 5 mps 742 mmHg 89%
05:00 +5°C° 0 mm 5 mps 742 mmHg 89%
06:00 +5°C° 0 mm 5 mps 742 mmHg 89%
07:00 +5°C° 0 mm 5 mps 742 mmHg 88%
08:00 +4°C° 0 mm 6 mps 742 mmHg 88%
09:00 +4°C° 0 mm 6 mps 743 mmHg 84%
10:00 +5°C° 0 mm 6 mps 743 mmHg 79%
11:00 +7°C° 0 mm 6 mps 743 mmHg 75%
12:00 +7°C° 0 mm 6 mps 743 mmHg 74%
13:00 +7°C° 0 mm 6 mps 743 mmHg 73%
14:00 +8°C° 0 mm 6 mps 743 mmHg 72%
15:00 +7°C° 0 mm 6 mps 743 mmHg 75%
16:00 +7°C° 0 mm 6 mps 744 mmHg 78%
17:00 +5°C° 0 mm 6 mps 744 mmHg 81%
18:00 +5°C° 0 mm 6 mps 744 mmHg 83%
19:00 +5°C° 0 mm 6 mps 744 mmHg 84%
20:00 +5°C° 0 mm 6 mps 745 mmHg 85%
21:00 +6°C° 0 mm 5 mps 745 mmHg 86%
22:00 +6°C° 0 mm 5 mps 745 mmHg 86%
23:00 +6°C° 0 mm 5 mps 745 mmHg 87%

2 November, Monday

Time Temperature Precipitation Wind Pressure Humidity
00:00 +6°C° 0 mm 4 mps 745 mmHg 88%
01:00 +6°C° 0 mm 4 mps 745 mmHg 88%
02:00 +6°C° 0 mm 4 mps 746 mmHg 88%
03:00 +6°C° 0 mm 4 mps 746 mmHg 89%
04:00 +5°C° 0 mm 4 mps 746 mmHg 90%
05:00 +5°C° 0 mm 4 mps 746 mmHg 90%
06:00 +6°C° 0 mm 4 mps 746 mmHg 91%
07:00 +7°C° 0 mm 3 mps 746 mmHg 91%
08:00 +7°C° 0 mm 3 mps 747 mmHg 91%
09:00 +7°C° 0 mm 4 mps 747 mmHg 90%
10:00 +7°C° 0 mm 4 mps 747 mmHg 89%
11:00 +8°C° 0 mm 4 mps 747 mmHg 87%
12:00 +8°C° 0 mm 4 mps 747 mmHg 86%
13:00 +8°C° 0 mm 4 mps 747 mmHg 85%
14:00 +10°C° 0 mm 4 mps 748 mmHg 83%
15:00 +8°C° 0 mm 4 mps 748 mmHg 86%
16:00 +7°C° 0 mm 4 mps 748 mmHg 89%
17:00 +7°C° 0 mm 4 mps 748 mmHg 92%
18:00 +7°C° 0 mm 4 mps 748 mmHg 92%
19:00 +7°C° 0 mm 4 mps 748 mmHg 92%
20:00 +6°C° 0 mm 4 mps 748 mmHg 92%
21:00 +6°C° 0 mm 4 mps 748 mmHg 93%
22:00 +6°C° 0 mm 4 mps 748 mmHg 94%
23:00 +6°C° 0 mm 4 mps 749 mmHg 95%
Show more